ETD899 RCTP-OMAA

Flight info

Callsign ETD899
Flight time N/A
Altitude 36000
Route CHALI1A CHALI T3 MKG A1 KADLO T1 KAPLI DCT SIKOU/K0917S1100 A202 ASSAD/K0919F360 A206 VIN/K0913F380 A206 NALAO/N0493F380 A206 LPB B465 CEA A791 BPL/N0490F400 L639 RASKI N881 KIPOL L444 TOLDA M628 TULBU N563 NOBTO NOBTO6D
Aircraft A359/H-SDE2E3FGHIJ1J3J4J5LM1ORWXYZ/LB1D1

Departure

Time N/A
Airport Taiwan Taoyuan International Airport (RCTP)

Arrival

Time 2026-04-30 02:47
Airport Zayed International Airport (OMAA)
Time Latitude Longitude Altitude Speed Heading
2026-04-29 21:55 22.05153 93.70591 37904 ft 461 kts 277°
2026-04-29 21:56 22.06153 93.63767 37909 ft 462 kts 277°
2026-04-29 21:56 22.07152 93.56933 37923 ft 462 kts 277°
2026-04-29 21:57 22.08151 93.50089 37922 ft 462 kts 277°
2026-04-29 21:57 22.09147 93.43235 37927 ft 463 kts 277°
2026-04-29 21:58 22.10141 93.36367 37919 ft 463 kts 277°
2026-04-29 21:58 22.11132 93.29506 37920 ft 463 kts 277°
2026-04-29 21:59 22.12114 93.22692 37910 ft 462 kts 277°
2026-04-29 21:59 22.13096 93.15848 37902 ft 461 kts 277°
2026-04-29 22:00 22.14067 93.09010 37893 ft 460 kts 277°
2026-04-29 22:00 22.15049 93.02194 37877 ft 459 kts 277°
2026-04-29 22:01 22.16019 92.95345 37868 ft 458 kts 277°
2026-04-29 22:01 22.16983 92.88553 37874 ft 458 kts 277°
2026-04-29 22:02 22.17782 92.82910 37860 ft 457 kts 277°
2026-04-29 22:02 22.18739 92.76131 37854 ft 457 kts 277°
2026-04-29 22:03 22.19689 92.69362 37858 ft 456 kts 278°
2026-04-29 22:03 22.20615 92.62551 37852 ft 455 kts 275°
2026-04-29 22:04 22.21066 92.55750 37847 ft 454 kts 272°
2026-04-29 22:04 22.21356 92.48901 37843 ft 453 kts 272°
2026-04-29 22:05 22.21703 92.42109 37844 ft 454 kts 273°
2026-04-29 22:06 22.22307 92.31923 37838 ft 453 kts 273°
2026-04-29 22:06 22.22722 92.25133 37844 ft 453 kts 274°
2026-04-29 22:07 22.23210 92.18364 37840 ft 453 kts 274°
2026-04-29 22:07 22.23718 92.11585 37836 ft 452 kts 274°
2026-04-29 22:08 22.24214 92.04821 37836 ft 453 kts 274°
2026-04-29 22:08 22.24699 91.98044 37830 ft 453 kts 274°
2026-04-29 22:09 22.25181 91.91246 37833 ft 454 kts 274°
2026-04-29 22:09 22.25660 91.84442 37834 ft 455 kts 274°
2026-04-29 22:10 22.26242 91.77639 37829 ft 456 kts 277°
2026-04-29 22:10 22.27080 91.70844 37831 ft 456 kts 277°
2026-04-29 22:11 22.27928 91.64049 37827 ft 457 kts 277°
2026-04-29 22:11 22.28734 91.57235 37826 ft 458 kts 277°
2026-04-29 22:12 22.29515 91.50419 37829 ft 458 kts 277°
2026-04-29 22:12 22.30292 91.43589 37825 ft 458 kts 277°
2026-04-29 22:13 22.31071 91.36749 37822 ft 459 kts 277°
2026-04-29 22:13 22.31907 91.29914 37818 ft 459 kts 277°
2026-04-29 22:14 22.32768 91.23085 37820 ft 459 kts 278°
2026-04-29 22:14 22.33621 91.16245 37818 ft 460 kts 277°
2026-04-29 22:15 22.34465 91.09396 37811 ft 460 kts 277°
2026-04-29 22:15 22.35305 91.02535 37815 ft 460 kts 278°
2026-04-29 22:16 22.36141 90.95682 37810 ft 461 kts 278°
2026-04-29 22:16 22.36977 90.88811 37806 ft 461 kts 278°
2026-04-29 22:17 22.37809 90.81943 37809 ft 461 kts 278°
2026-04-29 22:17 22.38639 90.75073 37804 ft 461 kts 278°
2026-04-29 22:18 22.39467 90.68197 37801 ft 461 kts 278°
2026-04-29 22:18 22.40292 90.61313 37799 ft 462 kts 278°
2026-04-29 22:19 22.41114 90.54432 37796 ft 462 kts 278°
2026-04-29 22:19 22.41934 90.47541 37794 ft 462 kts 278°
2026-04-29 22:20 22.42752 90.40644 37792 ft 462 kts 278°
2026-04-29 22:20 22.43566 90.33756 37788 ft 462 kts 278°
2026-04-29 22:21 22.44373 90.26906 37796 ft 462 kts 278°
2026-04-29 22:21 22.45187 90.19966 37795 ft 463 kts 278°
2026-04-29 22:22 22.45993 90.13066 37794 ft 463 kts 278°
2026-04-29 22:22 22.46790 90.06210 37796 ft 463 kts 278°
2026-04-29 22:23 22.47591 89.99304 37779 ft 463 kts 278°
2026-04-29 22:23 22.48389 89.92396 37780 ft 463 kts 278°
2026-04-29 22:24 22.49185 89.85481 37781 ft 463 kts 278°
2026-04-29 22:24 22.49977 89.78570 37784 ft 463 kts 278°
2026-04-29 22:25 22.50767 89.71654 37787 ft 463 kts 278°
2026-04-29 22:25 22.51554 89.64735 37785 ft 463 kts 278°
2026-04-29 22:26 22.52338 89.57823 37789 ft 463 kts 278°
2026-04-29 22:26 22.53118 89.50905 37786 ft 463 kts 278°
2026-04-29 22:27 22.53896 89.43989 37789 ft 464 kts 278°
2026-04-29 22:27 22.54672 89.37061 37796 ft 464 kts 278°
2026-04-29 22:28 22.55446 89.30131 37794 ft 464 kts 278°
2026-04-29 22:28 22.56217 89.23187 37794 ft 465 kts 278°
2026-04-29 22:29 22.56855 89.17421 37797 ft 465 kts 278°
2026-04-29 22:29 22.57751 89.09301 37796 ft 465 kts 278°
2026-04-29 22:30 22.58510 89.02393 37797 ft 465 kts 278°
2026-04-29 22:30 22.59270 88.95439 37800 ft 465 kts 278°
2026-04-29 22:31 22.60190 88.88466 37797 ft 465 kts 281°
2026-04-29 22:31 22.61410 88.81639 37799 ft 465 kts 282°
2026-04-29 22:32 22.62643 88.74771 37811 ft 465 kts 281°
2026-04-29 22:32 22.63824 88.67875 37817 ft 466 kts 281°
2026-04-29 22:33 22.64976 88.60971 37827 ft 466 kts 281°
2026-04-29 22:33 22.66121 88.54064 37833 ft 466 kts 280°
2026-04-29 22:34 22.67267 88.47145 37831 ft 467 kts 280°
2026-04-29 22:34 22.67971 88.40156 37828 ft 467 kts 275°
2026-04-29 22:35 22.68459 88.33138 37824 ft 467 kts 274°
2026-04-29 22:35 22.68911 88.26115 37819 ft 468 kts 274°
2026-04-29 22:36 22.69361 88.19129 37808 ft 468 kts 274°
2026-04-29 22:36 22.69818 88.12100 37799 ft 469 kts 274°
2026-04-29 22:37 22.70276 88.05055 37791 ft 469 kts 274°
2026-04-29 22:37 22.70732 87.98004 37792 ft 470 kts 274°
2026-04-29 22:38 22.71184 87.90946 37787 ft 470 kts 274°
2026-04-29 22:38 22.71634 87.83881 37795 ft 470 kts 274°
2026-04-29 22:39 22.72081 87.76810 37796 ft 470 kts 274°
2026-04-29 22:39 22.72525 87.69739 37797 ft 470 kts 274°
2026-04-29 22:40 22.72894 87.63819 37803 ft 470 kts 274°
2026-04-29 22:40 22.73402 87.55610 37807 ft 470 kts 274°
2026-04-29 22:41 22.73836 87.48538 37809 ft 470 kts 274°
2026-04-29 22:41 22.74195 87.42664 37812 ft 470 kts 273°
2026-04-29 22:42 22.74622 87.35605 37812 ft 469 kts 273°
2026-04-29 22:42 22.75047 87.28549 37822 ft 469 kts 273°
2026-04-29 22:43 22.75468 87.21507 37821 ft 468 kts 273°
2026-04-29 22:43 22.75884 87.14473 37826 ft 467 kts 273°
2026-04-29 22:44 22.76298 87.07453 37830 ft 466 kts 273°
2026-04-29 22:44 22.76707 87.00448 37837 ft 466 kts 273°
2026-04-29 22:45 22.77113 86.93448 37835 ft 465 kts 273°
2026-04-29 22:45 22.77583 86.85270 37846 ft 465 kts 273°
2026-04-29 22:46 22.77915 86.79452 37846 ft 465 kts 273°
2026-04-29 22:46 22.78311 86.72455 37856 ft 465 kts 273°
2026-04-29 22:47 22.78704 86.65469 37860 ft 465 kts 273°
2026-04-29 22:47 22.79094 86.58470 37865 ft 465 kts 273°
2026-04-29 22:48 22.79481 86.51467 37870 ft 464 kts 272°
2026-04-29 22:48 22.79864 86.44499 37875 ft 463 kts 272°
2026-04-29 22:49 22.80242 86.37540 37878 ft 462 kts 272°
2026-04-29 22:49 22.80618 86.30601 37880 ft 461 kts 272°
2026-04-29 22:50 22.80989 86.23673 37883 ft 459 kts 272°
2026-04-29 22:50 22.81362 86.16765 37890 ft 459 kts 270°
2026-04-29 22:51 22.81871 86.09791 37891 ft 470 kts 272°
2026-04-29 22:51 22.82810 85.99171 37895 ft 471 kts 272°
2026-04-29 22:52 22.83409 85.92106 37905 ft 470 kts 272°
2026-04-29 22:52 22.83987 85.85040 37907 ft 470 kts 272°
2026-04-29 22:53 22.84557 85.77982 37913 ft 470 kts 272°
2026-04-29 22:53 22.85123 85.70931 37915 ft 470 kts 272°
2026-04-29 22:54 22.85688 85.63882 37916 ft 469 kts 272°
2026-04-29 22:54 22.86249 85.56830 37928 ft 469 kts 273°
2026-04-29 22:55 22.86808 85.49783 37931 ft 468 kts 273°
2026-04-29 22:55 22.87362 85.42751 37936 ft 468 kts 273°
2026-04-29 22:56 22.87912 85.35724 37939 ft 467 kts 273°
2026-04-29 22:56 22.88462 85.28662 37932 ft 467 kts 273°
2026-04-29 22:57 22.89003 85.21682 37929 ft 467 kts 274°
2026-04-29 22:57 22.89542 85.14672 37926 ft 467 kts 274°
2026-04-29 22:58 22.90090 85.07630 37924 ft 468 kts 274°
2026-04-29 22:58 22.90633 85.00601 37919 ft 468 kts 274°
2026-04-29 22:59 22.91172 84.93572 37917 ft 468 kts 274°
2026-04-29 22:59 22.91709 84.86535 37910 ft 468 kts 274°
2026-04-29 23:00 22.92243 84.79502 37907 ft 468 kts 274°
2026-04-29 23:00 22.92778 84.72418 37900 ft 468 kts 274°
2026-04-29 23:01 22.93312 84.65441 37904 ft 467 kts 274°
2026-04-29 23:01 22.93836 84.58370 37909 ft 467 kts 274°
2026-04-29 23:02 22.94348 84.51388 37898 ft 467 kts 274°
2026-04-29 23:02 22.94863 84.44368 37893 ft 467 kts 274°
2026-04-29 23:03 22.95377 84.37354 37886 ft 466 kts 275°
2026-04-29 23:03 22.95888 84.30342 37885 ft 466 kts 275°
2026-04-29 23:04 22.96394 84.23346 37880 ft 465 kts 275°
2026-04-29 23:04 22.96897 84.16352 37873 ft 464 kts 275°
2026-04-29 23:05 22.97384 84.09363 37870 ft 464 kts 274°
2026-04-29 23:05 22.97760 84.02382 37864 ft 463 kts 274°
2026-04-29 23:06 22.98108 83.95410 37862 ft 463 kts 274°
2026-04-29 23:06 22.98469 83.88438 37851 ft 462 kts 274°
2026-04-29 23:07 22.98838 83.81478 37842 ft 462 kts 274°
2026-04-29 23:07 22.99207 83.74527 37837 ft 461 kts 274°
2026-04-29 23:08 22.99570 83.67591 37833 ft 460 kts 274°
2026-04-29 23:08 22.99929 83.60657 37827 ft 460 kts 275°
2026-04-29 23:09 23.00287 83.53729 37814 ft 459 kts 275°
2026-04-29 23:09 23.00641 83.46809 37811 ft 459 kts 274°
2026-04-29 23:10 23.00990 83.39902 37800 ft 458 kts 274°
2026-04-29 23:10 23.01335 83.33001 37785 ft 458 kts 274°
2026-04-29 23:11 23.01678 83.26106 37780 ft 457 kts 274°
2026-04-29 23:11 23.02017 83.19225 37769 ft 456 kts 274°
2026-04-29 23:12 23.02353 83.12346 37760 ft 457 kts 275°
2026-04-29 23:12 23.02687 83.05462 37746 ft 457 kts 275°
2026-04-29 23:13 23.03017 82.98577 37744 ft 457 kts 275°
2026-04-29 23:13 23.03344 82.91687 37739 ft 457 kts 275°
2026-04-29 23:14 23.03669 82.84798 37737 ft 457 kts 275°
2026-04-29 23:14 23.03991 82.77902 37732 ft 457 kts 275°
2026-04-29 23:15 23.04310 82.71003 37728 ft 457 kts 275°
2026-04-29 23:15 23.04625 82.64114 37728 ft 457 kts 275°
2026-04-29 23:16 23.04938 82.57222 37729 ft 457 kts 275°
2026-04-29 23:16 23.05247 82.50341 37732 ft 456 kts 275°
2026-04-29 23:17 23.05553 82.43461 37729 ft 456 kts 275°
2026-04-29 23:17 23.05856 82.36585 37746 ft 456 kts 275°
2026-04-29 23:18 23.06157 82.29708 37747 ft 456 kts 275°
2026-04-29 23:18 23.06406 82.23944 37745 ft 456 kts 275°
2026-04-29 23:19 23.06701 82.17075 37749 ft 456 kts 275°
2026-04-29 23:19 23.07063 82.10198 37749 ft 456 kts 276°
2026-04-29 23:20 23.07515 82.03331 37752 ft 456 kts 277°
2026-04-29 23:20 23.07961 81.96462 37754 ft 456 kts 276°
2026-04-29 23:21 23.08387 81.89595 37750 ft 456 kts 276°
2026-04-29 23:21 23.08803 81.82728 37756 ft 456 kts 276°
2026-04-29 23:22 23.09110 81.75881 37754 ft 457 kts 275°
2026-04-29 23:22 23.09306 81.68986 37756 ft 457 kts 275°
2026-04-29 23:23 23.09508 81.62085 37758 ft 457 kts 275°
2026-04-29 23:23 23.09729 81.55190 37756 ft 457 kts 275°
2026-04-29 23:24 23.09957 81.48289 37756 ft 457 kts 275°
2026-04-29 23:24 23.10182 81.41399 37761 ft 457 kts 276°
2026-04-29 23:25 23.10403 81.34506 37762 ft 456 kts 276°
2026-04-29 23:25 23.10620 81.27623 37764 ft 456 kts 276°
2026-04-29 23:26 23.10835 81.20732 37763 ft 456 kts 276°
2026-04-29 23:26 23.11046 81.13850 37767 ft 455 kts 276°
2026-04-29 23:27 23.11253 81.06974 37769 ft 455 kts 276°
2026-04-29 23:27 23.11460 81.00107 37766 ft 455 kts 276°
2026-04-29 23:28 23.11662 80.93248 37770 ft 454 kts 276°
2026-04-29 23:28 23.11859 80.86440 37769 ft 454 kts 276°
2026-04-29 23:29 23.12054 80.79594 37772 ft 453 kts 276°
2026-04-29 23:29 23.12247 80.72751 37764 ft 453 kts 276°
2026-04-29 23:30 23.12436 80.65909 37765 ft 452 kts 276°
2026-04-29 23:30 23.12622 80.59082 37768 ft 452 kts 276°
2026-04-29 23:31 23.12806 80.52258 37766 ft 452 kts 276°
2026-04-29 23:31 23.12985 80.45440 37767 ft 451 kts 276°
2026-04-29 23:32 23.13163 80.38631 37771 ft 451 kts 276°
2026-04-29 23:32 23.13337 80.31819 37767 ft 450 kts 276°
2026-04-29 23:33 23.13507 80.25018 37769 ft 450 kts 276°
2026-04-29 23:33 23.13676 80.18224 37769 ft 450 kts 276°
2026-04-29 23:34 23.13841 80.11422 37767 ft 450 kts 276°
2026-04-29 23:34 23.14003 80.04631 37765 ft 450 kts 277°
2026-04-29 23:35 23.14166 79.97832 37769 ft 450 kts 276°
2026-04-29 23:35 23.14320 79.91046 37773 ft 450 kts 276°
2026-04-29 23:36 23.14472 79.84252 37768 ft 450 kts 276°
2026-04-29 23:36 23.14621 79.77457 37770 ft 449 kts 276°
2026-04-29 23:37 23.14768 79.70674 37774 ft 449 kts 276°
2026-04-29 23:37 23.14913 79.63887 37778 ft 449 kts 276°
2026-04-29 23:38 23.15054 79.57111 37777 ft 449 kts 276°
2026-04-29 23:38 23.15197 79.50325 37784 ft 449 kts 276°
2026-04-29 23:39 23.15331 79.43549 37783 ft 448 kts 276°
2026-04-29 23:39 23.15461 79.36735 37786 ft 448 kts 276°
2026-04-29 23:40 23.15589 79.29963 37788 ft 448 kts 276°
2026-04-29 23:40 23.15716 79.23206 37793 ft 447 kts 276°
2026-04-29 23:41 23.15841 79.16451 37795 ft 447 kts 276°
2026-04-29 23:41 23.15961 79.09698 37796 ft 446 kts 276°
2026-04-29 23:42 23.16078 79.02957 37800 ft 446 kts 276°
2026-04-29 23:42 23.16193 78.96220 37798 ft 446 kts 276°
2026-04-29 23:43 23.16304 78.89492 37797 ft 445 kts 276°
2026-04-29 23:43 23.16413 78.82763 37799 ft 445 kts 276°
2026-04-29 23:44 23.16518 78.76038 37806 ft 445 kts 276°
2026-04-29 23:44 23.16622 78.69321 37801 ft 444 kts 276°
2026-04-29 23:45 23.16721 78.62617 37804 ft 444 kts 276°
2026-04-29 23:45 23.16818 78.55859 37804 ft 444 kts 276°
2026-04-29 23:46 23.16912 78.49153 37803 ft 444 kts 276°
2026-04-29 23:46 23.17003 78.42477 37808 ft 445 kts 276°
2026-04-29 23:47 23.17091 78.35752 37801 ft 445 kts 277°
2026-04-29 23:47 23.17176 78.29035 37803 ft 444 kts 276°
2026-04-29 23:48 23.17259 78.22319 37802 ft 445 kts 276°
2026-04-29 23:48 23.17340 78.15595 37795 ft 445 kts 276°
2026-04-29 23:49 23.17417 78.08861 37797 ft 446 kts 276°
2026-04-29 23:49 23.17488 78.02129 37795 ft 446 kts 276°
2026-04-29 23:50 23.17561 77.95390 37792 ft 446 kts 276°
2026-04-29 23:51 23.17666 77.85263 37798 ft 447 kts 276°
2026-04-29 23:51 23.17727 77.78509 37804 ft 447 kts 276°
2026-04-29 23:52 23.17788 77.71762 37804 ft 446 kts 276°
2026-04-29 23:52 23.17849 77.65017 37802 ft 446 kts 276°
2026-04-29 23:53 23.17906 77.58273 37809 ft 446 kts 276°
2026-04-29 23:53 23.17959 77.51532 37814 ft 446 kts 276°
2026-04-29 23:54 23.18009 77.44790 37825 ft 446 kts 276°
2026-04-29 23:54 23.18056 77.38053 37829 ft 446 kts 276°
2026-04-29 23:55 23.18100 77.31325 37832 ft 445 kts 276°
2026-04-29 23:55 23.18142 77.24600 37832 ft 445 kts 276°
2026-04-29 23:56 23.18182 77.17846 37887 ft 450 kts 276°
2026-04-29 23:56 23.18215 77.12168 38041 ft 454 kts 276°
2026-04-29 23:56 23.18233 77.08729 38204 ft 455 kts 276°
2026-04-29 23:57 23.18248 77.05289 38424 ft 455 kts 276°
2026-04-29 23:57 23.18262 77.01855 38619 ft 454 kts 276°
2026-04-29 23:57 23.18276 76.98416 38757 ft 455 kts 276°
2026-04-29 23:57 23.18290 76.94974 38903 ft 455 kts 276°
2026-04-29 23:58 23.18308 76.90424 39120 ft 455 kts 275°
2026-04-29 23:58 23.18328 76.84667 39367 ft 455 kts 275°
2026-04-29 23:58 23.18339 76.81228 39509 ft 455 kts 275°
2026-04-29 23:59 23.18350 76.77793 39648 ft 455 kts 275°
2026-04-29 23:59 23.18360 76.74352 39787 ft 455 kts 275°
2026-04-29 23:59 23.18369 76.70911 39822 ft 456 kts 275°
2026-04-30 00:00 23.18385 76.64027 39825 ft 455 kts 275°
2026-04-30 00:00 23.18397 76.57148 39832 ft 455 kts 275°
2026-04-30 00:01 23.18407 76.50273 39828 ft 455 kts 275°
2026-04-30 00:01 23.18414 76.43444 39834 ft 455 kts 275°
2026-04-30 00:02 23.18419 76.36573 39832 ft 455 kts 275°
2026-04-30 00:02 23.18420 76.29698 39832 ft 455 kts 275°
2026-04-30 00:03 23.18418 76.22825 39833 ft 455 kts 275°
2026-04-30 00:03 23.18413 76.15945 39834 ft 455 kts 275°
2026-04-30 00:04 23.18405 76.09019 39836 ft 456 kts 275°
2026-04-30 00:04 23.18395 76.02129 39836 ft 456 kts 275°
2026-04-30 00:05 23.18365 75.95230 39838 ft 456 kts 274°
2026-04-30 00:05 23.18276 75.88332 39838 ft 457 kts 274°
2026-04-30 00:06 23.18178 75.81423 39843 ft 457 kts 274°
2026-04-30 00:06 23.18085 75.74521 39845 ft 457 kts 274°
2026-04-30 00:07 23.17995 75.67620 39845 ft 457 kts 274°
2026-04-30 00:07 23.17903 75.60712 39843 ft 456 kts 274°
2026-04-30 00:08 23.17807 75.53820 39853 ft 456 kts 274°
2026-04-30 00:08 23.17709 75.46925 39851 ft 456 kts 274°
2026-04-30 00:09 23.17607 75.40031 39844 ft 456 kts 274°
2026-04-30 00:09 23.17503 75.33134 39846 ft 456 kts 274°
2026-04-30 00:10 23.17395 75.26246 39839 ft 456 kts 274°
2026-04-30 00:10 23.17285 75.19358 39847 ft 456 kts 274°
2026-04-30 00:11 23.17171 75.12475 39838 ft 456 kts 274°
2026-04-30 00:11 23.17054 75.05586 39842 ft 455 kts 274°
2026-04-30 00:12 23.16934 74.98667 39832 ft 455 kts 274°
2026-04-30 00:12 23.16811 74.91788 39831 ft 455 kts 274°
2026-04-30 00:13 23.16686 74.84916 39823 ft 455 kts 274°
2026-04-30 00:13 23.16558 74.78044 39827 ft 454 kts 274°
2026-04-30 00:14 23.16427 74.71182 39822 ft 454 kts 274°
2026-04-30 00:14 23.16293 74.64331 39817 ft 454 kts 273°
2026-04-30 00:15 23.16155 74.57469 39814 ft 454 kts 273°
2026-04-30 00:15 23.16016 74.50608 39805 ft 454 kts 273°
2026-04-30 00:16 23.15874 74.43743 39804 ft 454 kts 273°
2026-04-30 00:16 23.15727 74.36837 39802 ft 454 kts 273°
2026-04-30 00:17 23.15550 74.29969 39796 ft 455 kts 272°
2026-04-30 00:17 23.15215 74.23099 39790 ft 456 kts 271°
2026-04-30 00:18 23.14854 74.16266 39786 ft 456 kts 271°
2026-04-30 00:18 23.14510 74.09343 39782 ft 456 kts 271°
2026-04-30 00:19 23.14182 74.02509 39782 ft 456 kts 271°
2026-04-30 00:19 23.13852 73.95618 39776 ft 457 kts 271°
2026-04-30 00:20 23.13517 73.88720 39772 ft 457 kts 271°
2026-04-30 00:20 23.13179 73.81819 39769 ft 457 kts 271°
2026-04-30 00:21 23.12838 73.74922 39761 ft 457 kts 271°
2026-04-30 00:21 23.12493 73.68025 39760 ft 457 kts 271°
2026-04-30 00:22 23.12146 73.61123 39756 ft 457 kts 271°
2026-04-30 00:22 23.11795 73.54222 39757 ft 458 kts 271°
2026-04-30 00:23 23.11441 73.47316 39752 ft 458 kts 271°
2026-04-30 00:23 23.11085 73.40422 39751 ft 457 kts 271°
2026-04-30 00:24 23.10726 73.33522 39747 ft 457 kts 271°
2026-04-30 00:24 23.10364 73.26627 39744 ft 457 kts 271°
2026-04-30 00:25 23.09998 73.19735 39744 ft 457 kts 271°
2026-04-30 00:25 23.09630 73.12843 39747 ft 457 kts 271°
2026-04-30 00:26 23.09259 73.05957 39742 ft 457 kts 271°
2026-04-30 00:26 23.08885 72.99065 39746 ft 457 kts 271°
2026-04-30 00:27 23.08508 72.92180 39743 ft 457 kts 271°
2026-04-30 00:27 23.08128 72.85287 39747 ft 457 kts 270°
2026-04-30 00:28 23.07742 72.78349 39745 ft 457 kts 270°
2026-04-30 00:28 23.07356 72.71453 39746 ft 457 kts 270°
2026-04-30 00:29 23.06961 72.64547 39743 ft 458 kts 270°
2026-04-30 00:29 23.06305 72.58830 39747 ft 460 kts 266°
2026-04-30 00:30 23.05507 72.51894 39745 ft 457 kts 271°
2026-04-30 00:30 23.05478 72.45014 39745 ft 455 kts 275°
2026-04-30 00:31 23.05673 72.38185 39746 ft 455 kts 275°
2026-04-30 00:31 23.05895 72.31317 39747 ft 455 kts 275°
2026-04-30 00:32 23.06093 72.24451 39742 ft 456 kts 275°
2026-04-30 00:32 23.06274 72.17528 39743 ft 456 kts 275°
2026-04-30 00:33 23.06448 72.10640 39745 ft 456 kts 275°
2026-04-30 00:33 23.06620 72.03754 39744 ft 456 kts 275°
2026-04-30 00:34 23.06789 71.96864 39748 ft 456 kts 275°
2026-04-30 00:34 23.06956 71.89977 39747 ft 457 kts 275°
2026-04-30 00:35 23.07120 71.83079 39746 ft 457 kts 275°
2026-04-30 00:35 23.07281 71.76182 39749 ft 457 kts 275°
2026-04-30 00:36 23.07440 71.69239 39751 ft 457 kts 275°
2026-04-30 00:36 23.07595 71.62332 39749 ft 457 kts 275°
2026-04-30 00:37 23.07747 71.55423 39755 ft 458 kts 275°
2026-04-30 00:37 23.07898 71.48470 39755 ft 458 kts 275°
2026-04-30 00:38 23.08044 71.41551 39754 ft 458 kts 275°
2026-04-30 00:38 23.08187 71.34634 39756 ft 458 kts 274°
2026-04-30 00:39 23.08327 71.27727 39754 ft 458 kts 274°
2026-04-30 00:39 23.08464 71.20848 39753 ft 458 kts 274°
2026-04-30 00:40 23.08599 71.13886 39756 ft 458 kts 274°
2026-04-30 00:40 23.08729 71.07010 39756 ft 458 kts 274°
2026-04-30 00:41 23.08858 71.00048 39754 ft 458 kts 274°
2026-04-30 00:41 23.08984 70.93126 39756 ft 459 kts 274°
2026-04-30 00:42 23.09106 70.86197 39760 ft 459 kts 274°
2026-04-30 00:42 23.09226 70.79275 39758 ft 459 kts 274°
2026-04-30 00:43 23.09342 70.72347 39756 ft 459 kts 274°
2026-04-30 00:43 23.09454 70.65424 39754 ft 459 kts 274°
2026-04-30 00:44 23.09564 70.58482 39756 ft 459 kts 274°
2026-04-30 00:44 23.09670 70.51547 39757 ft 460 kts 274°
2026-04-30 00:45 23.09774 70.44645 39760 ft 460 kts 274°
2026-04-30 00:45 23.09874 70.37703 39758 ft 460 kts 274°
2026-04-30 00:46 23.09972 70.30751 39755 ft 460 kts 274°
2026-04-30 00:46 23.10067 70.23802 39758 ft 460 kts 274°
2026-04-30 00:47 23.10159 70.16845 39758 ft 461 kts 274°
2026-04-30 00:47 23.10248 70.09889 39757 ft 461 kts 274°
2026-04-30 00:48 23.10334 70.02930 39759 ft 461 kts 274°
2026-04-30 00:48 23.10417 69.95961 39758 ft 461 kts 274°
2026-04-30 00:49 23.10497 69.89001 39764 ft 461 kts 274°
2026-04-30 00:49 23.10574 69.82023 39764 ft 462 kts 274°
2026-04-30 00:50 23.10647 69.75053 39763 ft 462 kts 273°
2026-04-30 00:50 23.10720 69.68065 39766 ft 462 kts 274°
2026-04-30 00:51 23.10790 69.61091 39766 ft 462 kts 273°
2026-04-30 00:51 23.10851 69.54102 39765 ft 462 kts 273°
2026-04-30 00:52 23.10912 69.47121 39766 ft 462 kts 273°
2026-04-30 00:52 23.10970 69.40137 39767 ft 463 kts 273°
2026-04-30 00:53 23.11026 69.33148 39765 ft 463 kts 273°
2026-04-30 00:53 23.11078 69.26162 39761 ft 463 kts 273°
2026-04-30 00:54 23.11128 69.19174 39761 ft 463 kts 273°
2026-04-30 00:54 23.11174 69.12226 39760 ft 463 kts 273°
2026-04-30 00:55 23.11217 69.05233 39757 ft 463 kts 273°
2026-04-30 00:55 23.11276 68.94736 39757 ft 463 kts 273°
2026-04-30 00:56 23.11312 68.87738 39756 ft 463 kts 273°
2026-04-30 00:56 23.11344 68.80736 39756 ft 464 kts 272°
2026-04-30 00:57 23.11374 68.73733 39756 ft 464 kts 272°
2026-04-30 00:57 23.11400 68.66729 39750 ft 464 kts 272°
2026-04-30 00:58 23.11423 68.59721 39752 ft 464 kts 272°
2026-04-30 00:58 23.11443 68.52711 39754 ft 464 kts 272°
2026-04-30 00:59 23.11460 68.45706 39753 ft 464 kts 272°
2026-04-30 00:59 23.11474 68.38692 39755 ft 464 kts 272°
2026-04-30 01:00 23.11487 68.31683 39755 ft 464 kts 272°
2026-04-30 01:00 23.11494 68.24673 39749 ft 464 kts 272°
2026-04-30 01:01 23.11498 68.17661 39753 ft 464 kts 272°
2026-04-30 01:01 23.11499 68.10641 39756 ft 464 kts 272°
2026-04-30 01:02 23.11498 68.03624 39749 ft 465 kts 272°
2026-04-30 01:02 23.11493 67.96598 39749 ft 465 kts 272°
2026-04-30 01:03 23.11485 67.89577 39751 ft 465 kts 272°
2026-04-30 01:03 23.11478 67.82541 39751 ft 465 kts 272°
2026-04-30 01:04 23.11463 67.75517 39753 ft 465 kts 272°
2026-04-30 01:04 23.11444 67.68476 39749 ft 465 kts 272°
2026-04-30 01:05 23.11423 67.61449 39745 ft 466 kts 272°
2026-04-30 01:05 23.11399 67.54459 39749 ft 466 kts 272°
2026-04-30 01:06 23.11373 67.47380 39749 ft 466 kts 272°
2026-04-30 01:06 23.11344 67.40384 39748 ft 466 kts 272°
2026-04-30 01:07 23.11311 67.33347 39746 ft 466 kts 271°
2026-04-30 01:07 23.11275 67.26308 39748 ft 466 kts 271°
2026-04-30 01:08 23.11243 67.20411 39746 ft 466 kts 271°
2026-04-30 01:08 23.11201 67.13369 39747 ft 466 kts 271°
2026-04-30 01:09 23.11156 67.06322 39748 ft 466 kts 271°
2026-04-30 01:09 23.11108 66.99275 39746 ft 466 kts 271°
2026-04-30 01:10 23.11061 66.92181 39747 ft 467 kts 271°
2026-04-30 01:10 23.11007 66.85133 39747 ft 467 kts 271°
2026-04-30 01:11 23.10947 66.78084 39745 ft 467 kts 271°
2026-04-30 01:11 23.10885 66.71026 39746 ft 467 kts 271°
2026-04-30 01:12 23.10821 66.63966 39747 ft 467 kts 271°
2026-04-30 01:12 23.10754 66.56911 39746 ft 467 kts 271°
2026-04-30 01:13 23.10685 66.49854 39747 ft 468 kts 271°
2026-04-30 01:13 23.10611 66.42737 39747 ft 468 kts 271°
2026-04-30 01:14 23.10534 66.35669 39747 ft 468 kts 271°
2026-04-30 01:14 23.10455 66.28602 39743 ft 468 kts 271°
2026-04-30 01:15 23.10372 66.21525 39749 ft 468 kts 271°
2026-04-30 01:15 23.10286 66.14443 39748 ft 468 kts 270°
2026-04-30 01:16 23.10197 66.07361 39746 ft 468 kts 270°
2026-04-30 01:16 23.10105 66.00293 39747 ft 469 kts 270°
2026-04-30 01:17 23.10010 65.93213 39746 ft 469 kts 270°
2026-04-30 01:17 23.09911 65.86131 39749 ft 469 kts 270°
2026-04-30 01:18 23.09809 65.79044 39748 ft 469 kts 270°
2026-04-30 01:18 23.09704 65.71966 39748 ft 469 kts 270°
2026-04-30 01:19 23.09595 65.64833 39751 ft 469 kts 270°
2026-04-30 01:19 23.09484 65.57747 39749 ft 469 kts 270°
2026-04-30 01:20 23.09370 65.50659 39750 ft 469 kts 270°
2026-04-30 01:20 23.09252 65.43576 39749 ft 469 kts 270°
2026-04-30 01:21 23.09131 65.36491 39748 ft 469 kts 270°
2026-04-30 01:21 23.09007 65.29400 39750 ft 469 kts 270°
2026-04-30 01:22 23.08880 65.22321 39751 ft 469 kts 270°
2026-04-30 01:22 23.08750 65.15233 39750 ft 469 kts 270°
2026-04-30 01:23 23.08616 65.08150 39751 ft 469 kts 270°
2026-04-30 01:23 23.08480 65.01062 39750 ft 469 kts 270°
2026-04-30 01:24 23.08340 64.93973 39750 ft 469 kts 269°
2026-04-30 01:24 23.08197 64.86885 39752 ft 469 kts 269°
2026-04-30 01:25 23.08054 64.79800 39754 ft 469 kts 269°
2026-04-30 01:25 23.07905 64.72717 39753 ft 469 kts 269°
2026-04-30 01:26 23.07750 64.65629 39754 ft 469 kts 269°
2026-04-30 01:26 23.07593 64.58540 39749 ft 469 kts 269°
2026-04-30 01:27 23.07435 64.51459 39750 ft 469 kts 269°
2026-04-30 01:27 23.07273 64.44376 39751 ft 469 kts 269°
2026-04-30 01:28 23.07108 64.37293 39752 ft 469 kts 269°
2026-04-30 01:28 23.06940 64.30213 39752 ft 469 kts 269°
2026-04-30 01:29 23.06768 64.23131 39748 ft 469 kts 269°
2026-04-30 01:29 23.06594 64.16053 39750 ft 469 kts 269°
2026-04-30 01:30 23.06416 64.08971 39750 ft 469 kts 269°
2026-04-30 01:30 23.06236 64.01890 39750 ft 469 kts 269°
2026-04-30 01:31 23.06051 63.94804 39753 ft 469 kts 269°
2026-04-30 01:31 23.05864 63.87719 39748 ft 469 kts 268°
2026-04-30 01:32 23.05791 63.80637 39748 ft 469 kts 271°
2026-04-30 01:32 23.05925 63.73557 39751 ft 469 kts 271°
2026-04-30 01:33 23.06442 63.66494 39749 ft 469 kts 276°
2026-04-30 01:33 23.07284 63.59418 39751 ft 469 kts 277°
2026-04-30 01:34 23.08174 63.52399 39747 ft 469 kts 277°
2026-04-30 01:34 23.09049 63.45374 39751 ft 469 kts 277°
2026-04-30 01:35 23.09905 63.38346 39749 ft 469 kts 277°
2026-04-30 01:35 23.10754 63.31320 39749 ft 469 kts 277°
2026-04-30 01:36 23.11462 63.25436 39746 ft 469 kts 277°
2026-04-30 01:36 23.12305 63.18405 39747 ft 469 kts 277°
2026-04-30 01:37 23.13146 63.11375 39751 ft 469 kts 277°
2026-04-30 01:37 23.13983 63.04347 39750 ft 469 kts 277°
2026-04-30 01:38 23.14819 62.97305 39750 ft 470 kts 277°
2026-04-30 01:38 23.15651 62.90264 39748 ft 470 kts 277°
2026-04-30 01:39 23.16480 62.83227 39747 ft 470 kts 276°
2026-04-30 01:39 23.17306 62.76183 39747 ft 470 kts 276°
2026-04-30 01:40 23.18130 62.69137 39748 ft 470 kts 276°
2026-04-30 01:40 23.18950 62.62092 39746 ft 470 kts 276°
2026-04-30 01:41 23.19767 62.55042 39747 ft 470 kts 276°
2026-04-30 01:41 23.20581 62.47992 39746 ft 470 kts 276°
2026-04-30 01:42 23.21392 62.40940 39748 ft 470 kts 276°
2026-04-30 01:42 23.22200 62.33881 39746 ft 470 kts 276°
2026-04-30 01:43 23.23004 62.26832 39746 ft 470 kts 276°
2026-04-30 01:43 23.23807 62.19772 39748 ft 470 kts 276°
2026-04-30 01:44 23.24605 62.12716 39748 ft 470 kts 276°
2026-04-30 01:44 23.25400 62.05659 39750 ft 470 kts 276°
2026-04-30 01:45 23.26193 61.98600 39750 ft 470 kts 276°
2026-04-30 01:45 23.26982 61.91542 39747 ft 470 kts 276°
2026-04-30 01:46 23.27768 61.84479 39748 ft 470 kts 276°
2026-04-30 01:46 23.28551 61.77412 39749 ft 471 kts 276°
2026-04-30 01:47 23.29331 61.70390 39750 ft 471 kts 276°
2026-04-30 01:47 23.30111 61.63276 39752 ft 471 kts 276°
2026-04-30 01:48 23.30882 61.56205 39752 ft 471 kts 276°
2026-04-30 01:48 23.31654 61.49135 39752 ft 471 kts 276°
2026-04-30 01:49 23.32425 61.42057 39751 ft 471 kts 275°
2026-04-30 01:49 23.33191 61.34936 39752 ft 471 kts 275°
2026-04-30 01:50 23.33951 61.27860 39752 ft 471 kts 275°
2026-04-30 01:50 23.34708 61.20791 39753 ft 471 kts 275°
2026-04-30 01:51 23.35462 61.13717 39752 ft 471 kts 275°
2026-04-30 01:51 23.36214 61.06637 39754 ft 471 kts 275°
2026-04-30 01:52 23.36962 60.99568 39754 ft 471 kts 275°
2026-04-30 01:52 23.37711 60.92488 39754 ft 471 kts 275°
2026-04-30 01:53 23.38458 60.85361 39753 ft 471 kts 275°
2026-04-30 01:53 23.39194 60.78284 39754 ft 471 kts 275°
2026-04-30 01:54 23.39929 60.71198 39753 ft 471 kts 275°
2026-04-30 01:54 23.40661 60.64124 39754 ft 471 kts 275°
2026-04-30 01:55 23.41390 60.57040 39749 ft 471 kts 275°
2026-04-30 01:55 23.42116 60.49958 39753 ft 471 kts 275°
2026-04-30 01:56 23.42838 60.42880 39752 ft 471 kts 275°
2026-04-30 01:56 23.43558 60.35796 39752 ft 471 kts 275°
2026-04-30 01:57 23.44279 60.28666 39751 ft 471 kts 275°
2026-04-30 01:57 23.44990 60.21625 39749 ft 471 kts 275°
2026-04-30 01:58 23.45703 60.14495 39750 ft 470 kts 275°
2026-04-30 01:58 23.46409 60.07409 39752 ft 470 kts 274°
2026-04-30 01:59 23.47462 59.96783 39754 ft 470 kts 274°
2026-04-30 02:00 23.48165 59.89700 39752 ft 470 kts 274°
2026-04-30 02:00 23.48859 59.82614 39751 ft 470 kts 274°
2026-04-30 02:01 23.49548 59.75535 39755 ft 470 kts 274°
2026-04-30 02:01 23.50235 59.68452 39755 ft 470 kts 274°
2026-04-30 02:02 23.50924 59.61327 39752 ft 470 kts 274°
2026-04-30 02:02 23.51606 59.54250 39754 ft 470 kts 274°
2026-04-30 02:03 23.52284 59.47174 39755 ft 469 kts 274°
2026-04-30 02:03 23.52963 59.40090 39753 ft 469 kts 274°
2026-04-30 02:04 23.53633 59.33021 39752 ft 469 kts 274°
2026-04-30 02:04 23.54298 59.25950 39753 ft 469 kts 274°
2026-04-30 02:05 23.54965 59.18835 39752 ft 469 kts 274°
2026-04-30 02:05 23.55514 59.12964 39753 ft 469 kts 274°
2026-04-30 02:06 23.56284 59.04702 39755 ft 469 kts 274°
2026-04-30 02:06 23.56832 58.98778 39734 ft 468 kts 274°
2026-04-30 02:07 23.57483 58.91719 39734 ft 468 kts 274°
2026-04-30 02:07 23.58127 58.84699 39736 ft 468 kts 274°
2026-04-30 02:08 23.58775 58.77592 39733 ft 468 kts 273°
2026-04-30 02:08 23.59416 58.70541 39736 ft 467 kts 273°
2026-04-30 02:09 23.60058 58.63438 39735 ft 467 kts 273°
2026-04-30 02:09 23.60691 58.56387 39739 ft 467 kts 273°
2026-04-30 02:10 23.61322 58.49337 39744 ft 467 kts 273°
2026-04-30 02:10 23.61947 58.42294 39746 ft 467 kts 273°
2026-04-30 02:11 23.62571 58.35247 39746 ft 467 kts 273°
2026-04-30 02:11 23.63191 58.28206 39748 ft 466 kts 273°
2026-04-30 02:12 23.63807 58.21171 39746 ft 466 kts 273°
2026-04-30 02:12 23.64420 58.14137 39746 ft 466 kts 273°
2026-04-30 02:13 23.65029 58.07101 39756 ft 466 kts 273°
2026-04-30 02:13 23.65635 58.00075 39761 ft 465 kts 273°
2026-04-30 02:14 23.66237 57.93050 39779 ft 465 kts 273°
2026-04-30 02:14 23.66836 57.86029 39790 ft 465 kts 273°
2026-04-30 02:15 23.67433 57.79009 39793 ft 465 kts 273°
2026-04-30 02:15 23.68025 57.71987 39796 ft 464 kts 272°
2026-04-30 02:16 23.68613 57.64964 39801 ft 465 kts 272°
2026-04-30 02:16 23.69202 57.57900 39799 ft 464 kts 272°
2026-04-30 02:17 23.69785 57.50879 39802 ft 464 kts 272°
2026-04-30 02:17 23.70364 57.43865 39805 ft 464 kts 272°
2026-04-30 02:18 23.70937 57.36895 39810 ft 464 kts 272°
2026-04-30 02:18 23.71512 57.29880 39817 ft 464 kts 272°
2026-04-30 02:19 23.72075 57.22910 39822 ft 464 kts 272°
2026-04-30 02:19 23.72643 57.15856 39832 ft 464 kts 272°
2026-04-30 02:20 23.73209 57.08796 39837 ft 464 kts 272°
2026-04-30 02:20 23.73770 57.01784 39843 ft 464 kts 272°
2026-04-30 02:21 23.74325 56.94777 39840 ft 463 kts 272°
2026-04-30 02:21 23.74877 56.87791 39407 ft 459 kts 272°
2026-04-30 02:21 23.75149 56.84299 38634 ft 463 kts 272°
2026-04-30 02:22 23.75419 56.80785 37853 ft 466 kts 272°
2026-04-30 02:22 23.75695 56.77254 37038 ft 468 kts 272°
2026-04-30 02:22 23.75972 56.73697 36205 ft 472 kts 273°
2026-04-30 02:22 23.76251 56.70118 35416 ft 474 kts 273°
2026-04-30 02:23 23.76530 56.66526 34642 ft 476 kts 273°
2026-04-30 02:23 23.76809 56.62923 33899 ft 478 kts 273°
2026-04-30 02:23 23.77087 56.59307 33166 ft 477 kts 273°
2026-04-30 02:23 23.77368 56.55666 32570 ft 473 kts 273°
2026-04-30 02:24 23.77641 56.52107 32011 ft 469 kts 273°
2026-04-30 02:24 23.77910 56.48577 31454 ft 465 kts 273°
2026-04-30 02:24 23.78176 56.45070 30904 ft 461 kts 273°
2026-04-30 02:24 23.78439 56.41592 30368 ft 458 kts 273°
2026-04-30 02:25 23.78700 56.38138 29802 ft 455 kts 273°
2026-04-30 02:25 23.78958 56.34715 29220 ft 451 kts 273°
2026-04-30 02:25 23.79214 56.31325 28685 ft 446 kts 273°
2026-04-30 02:25 23.79467 56.27967 28162 ft 441 kts 273°
2026-04-30 02:26 23.79715 56.24652 27631 ft 436 kts 273°
2026-04-30 02:26 23.79959 56.21369 27115 ft 432 kts 273°
2026-04-30 02:26 23.80200 56.18118 26611 ft 427 kts 273°
2026-04-30 02:26 23.80440 56.14899 26094 ft 423 kts 273°
2026-04-30 02:27 23.80676 56.11719 25596 ft 418 kts 272°
2026-04-30 02:27 23.80908 56.08564 25079 ft 415 kts 272°
2026-04-30 02:27 23.81139 56.05393 24553 ft 412 kts 272°
2026-04-30 02:27 23.81363 56.02325 24051 ft 409 kts 272°
2026-04-30 02:28 23.81587 55.99237 23536 ft 406 kts 272°
2026-04-30 02:28 23.81812 55.96135 22948 ft 403 kts 272°
2026-04-30 02:28 23.82031 55.93105 22418 ft 398 kts 272°
2026-04-30 02:28 23.82245 55.90144 21907 ft 394 kts 272°
2026-04-30 02:29 23.82459 55.87181 21406 ft 389 kts 272°
2026-04-30 02:29 23.82669 55.84252 20890 ft 385 kts 272°
2026-04-30 02:29 23.82882 55.81313 20390 ft 381 kts 272°
2026-04-30 02:29 23.83090 55.78436 19881 ft 378 kts 272°
2026-04-30 02:30 23.83293 55.75582 19379 ft 375 kts 272°
2026-04-30 02:30 23.83493 55.72754 18877 ft 373 kts 272°
2026-04-30 02:30 23.83692 55.69940 18393 ft 370 kts 272°
2026-04-30 02:30 23.83888 55.67144 17860 ft 368 kts 272°
2026-04-30 02:31 23.84083 55.64368 17341 ft 365 kts 272°
2026-04-30 02:31 23.84276 55.61619 16849 ft 361 kts 273°
2026-04-30 02:31 23.84467 55.58893 16369 ft 358 kts 273°
2026-04-30 02:31 23.84655 55.56194 15884 ft 354 kts 273°
2026-04-30 02:32 23.84842 55.53525 15403 ft 351 kts 273°
2026-04-30 02:32 23.85035 55.50873 14928 ft 349 kts 274°
2026-04-30 02:32 23.85494 55.48311 14469 ft 348 kts 287°
2026-04-30 02:32 23.86352 55.45862 14149 ft 343 kts 291°
2026-04-30 02:33 23.87295 55.43483 13721 ft 341 kts 292°
2026-04-30 02:33 23.88258 55.41111 13233 ft 340 kts 292°
2026-04-30 02:33 23.89212 55.38783 13023 ft 329 kts 292°
2026-04-30 02:33 23.90130 55.36551 12908 ft 316 kts 292°
2026-04-30 02:34 23.91012 55.34409 12790 ft 303 kts 292°
2026-04-30 02:34 23.91859 55.32353 12668 ft 291 kts 292°
2026-04-30 02:34 23.92685 55.30355 12339 ft 290 kts 293°
2026-04-30 02:34 23.93608 55.28354 11977 ft 289 kts 296°
2026-04-30 02:35 23.94548 55.26409 11635 ft 288 kts 296°
2026-04-30 02:35 23.95477 55.24478 11321 ft 287 kts 296°
2026-04-30 02:35 23.96398 55.22548 10988 ft 286 kts 295°
2026-04-30 02:35 23.97311 55.20624 10666 ft 285 kts 295°
2026-04-30 02:36 23.98220 55.18701 10340 ft 284 kts 295°
2026-04-30 02:36 23.99126 55.16780 10005 ft 284 kts 295°
2026-04-30 02:36 24.00031 55.14863 9670 ft 285 kts 295°
2026-04-30 02:36 24.00633 55.13586 9567 ft 278 kts 295°
2026-04-30 02:37 24.01507 55.11733 9445 ft 267 kts 295°
2026-04-30 02:37 24.02347 55.09951 9195 ft 262 kts 295°
2026-04-30 02:37 24.03184 55.08180 8893 ft 261 kts 295°
2026-04-30 02:37 24.04013 55.06412 8594 ft 262 kts 295°
2026-04-30 02:38 24.04871 55.04652 8302 ft 263 kts 300°
2026-04-30 02:38 24.06113 55.03194 7997 ft 266 kts 325°
2026-04-30 02:38 24.07701 55.02345 7708 ft 267 kts 336°
2026-04-30 02:38 24.09437 55.01627 7402 ft 267 kts 338°
2026-04-30 02:39 24.11179 55.00916 7095 ft 267 kts 338°
2026-04-30 02:39 24.12912 55.00199 6780 ft 266 kts 338°
2026-04-30 02:39 24.14638 54.99478 6488 ft 265 kts 338°
2026-04-30 02:39 24.16359 54.98754 6178 ft 265 kts 338°
2026-04-30 02:40 24.18073 54.98030 5868 ft 263 kts 338°
2026-04-30 02:40 24.19787 54.97276 5558 ft 261 kts 335°
2026-04-30 02:40 24.21238 54.96117 5272 ft 258 kts 312°
2026-04-30 02:40 24.22374 54.94610 4968 ft 256 kts 308°
2026-04-30 02:41 24.23452 54.93069 4688 ft 254 kts 308°
2026-04-30 02:41 24.24525 54.91538 4399 ft 252 kts 308°
2026-04-30 02:41 24.25576 54.90050 4286 ft 242 kts 308°
2026-04-30 02:41 24.26583 54.88630 4167 ft 231 kts 309°
2026-04-30 02:42 24.27552 54.87266 4052 ft 221 kts 309°
2026-04-30 02:42 24.28476 54.85966 3941 ft 211 kts 309°
2026-04-30 02:42 24.29360 54.84725 3830 ft 202 kts 309°
2026-04-30 02:42 24.30209 54.83533 3630 ft 196 kts 309°
2026-04-30 02:43 24.31035 54.82374 3353 ft 195 kts 310°
2026-04-30 02:43 24.31861 54.81214 3118 ft 191 kts 310°
2026-04-30 02:43 24.32656 54.80100 2977 ft 181 kts 311°
2026-04-30 02:43 24.33426 54.79023 2719 ft 178 kts 311°
2026-04-30 02:44 24.34177 54.77966 2479 ft 172 kts 311°
2026-04-30 02:44 24.34886 54.76966 2284 ft 161 kts 312°
2026-04-30 02:44 24.35570 54.76004 2080 ft 159 kts 312°
2026-04-30 02:44 24.36233 54.75071 1885 ft 151 kts 312°
2026-04-30 02:45 24.36879 54.74170 1705 ft 146 kts 312°
2026-04-30 02:45 24.37494 54.73304 1526 ft 146 kts 312°
2026-04-30 02:45 24.38118 54.72428 1336 ft 146 kts 312°
2026-04-30 02:45 24.38746 54.71550 1167 ft 147 kts 311°
2026-04-30 02:46 24.39373 54.70669 979 ft 146 kts 311°
2026-04-30 02:46 24.40011 54.69775 793 ft 147 kts 309°
2026-04-30 02:46 24.40644 54.68885 620 ft 149 kts 309°
2026-04-30 02:46 24.41276 54.67988 407 ft 149 kts 308°
2026-04-30 02:47 24.41909 54.67083 232 ft 150 kts 305°
2026-04-30 02:47 24.42545 54.66181 98 ft 148 kts 305°
2026-04-30 02:47 24.43106 54.65404 87 ft 95 kts 307°
2026-04-30 02:47 24.43326 54.65093 87 ft 8 kts 306°
2026-04-30 02:48 24.43350 54.65057 89 ft 10 kts 309°
2026-04-30 02:48 24.43412 54.64984 87 ft 15 kts 313°
2026-04-30 02:48 24.43497 54.64923 87 ft 16 kts 332°
2026-04-30 02:48 24.43604 54.64871 85 ft 18 kts 337°
2026-04-30 02:49 24.43718 54.64818 87 ft 12 kts 332°
2026-04-30 02:49 24.43725 54.64813 88 ft 0 kts 327°
2026-04-30 02:51 24.43754 54.64788 87 ft 11 kts 317°
2026-04-30 02:51 24.43817 54.64701 88 ft 17 kts 307°
2026-04-30 02:51 24.43893 54.64594 87 ft 19 kts 309°
2026-04-30 02:52 24.43960 54.64502 87 ft 19 kts 308°
2026-04-30 02:52 24.44047 54.64379 87 ft 21 kts 308°
2026-04-30 02:52 24.44123 54.64314 87 ft 12 kts 352°
2026-04-30 02:52 24.44197 54.64359 86 ft 13 kts 36°
2026-04-30 02:53 24.44260 54.64439 86 ft 15 kts 66°
2026-04-30 02:53 24.44317 54.64531 85 ft 16 kts 42°
2026-04-30 02:53 24.44405 54.64609 85 ft 17 kts 38°
2026-04-30 02:53 24.44502 54.64694 85 ft 19 kts 38°
2026-04-30 02:54 24.44610 54.64787 86 ft 21 kts 37°
2026-04-30 02:54 24.44729 54.64885 88 ft 22 kts 36°
2026-04-30 02:54 24.44856 54.64990 86 ft 24 kts 37°
2026-04-30 02:54 24.44991 54.65105 86 ft 25 kts 38°
2026-04-30 02:55 24.45058 54.65148 85 ft 3 kts 349°
2026-04-30 02:55 24.45086 54.65129 87 ft 9 kts 323°
2026-04-30 02:55 24.45144 54.65058 86 ft 16 kts 309°
2026-04-30 02:55 24.45174 54.65016 87 ft 0 kts 307°
2026-04-30 02:56 24.45184 54.64999 86 ft 10 kts 303°
2026-04-30 02:56 24.45217 54.64917 87 ft 15 kts 289°
2026-04-30 02:56 24.45241 54.64831 84 ft 7 kts 286°
2026-04-30 02:56 24.45246 54.64811 85 ft 0 kts 285°
2026-04-30 03:00 24.45247 54.64808 86 ft 2 kts 285°
2026-04-30 03:00 24.45258 54.64764 84 ft 8 kts 284°
2026-04-30 03:00 24.45261 54.64750 84 ft 3 kts 284°
2026-04-30 03:00 24.45263 54.64731 81 ft 2 kts 272°
2026-04-30 03:01 24.45259 54.64722 87 ft 0 kts 239°
2026-04-30 03:01 24.45248 54.64712 87 ft 0 kts 222°
2026-04-30 03:01 24.45243 54.64708 86 ft 5 kts 218°
2026-04-30 03:01 24.45228 54.64700 86 ft 0 kts 202°
2026-04-30 03:02 24.45221 54.64697 85 ft 1 kts 201°
2026-04-30 03:02 24.45220 54.64697 85 ft 0 kts 201°
2026-04-30 03:02 24.45212 54.64694 85 ft 0 kts 199°
2026-04-30 03:03 24.45209 54.64692 85 ft 1 kts 201°
2026-04-30 03:03 24.45207 54.64692 85 ft 0 kts 198°
2026-04-30 03:03 24.45205 54.64691 85 ft 2 kts 195°
2026-04-30 03:04 24.45190 54.64687 84 ft 2 kts 194°
2026-04-30 03:04 24.45188 54.64686 84 ft 0 kts 194°